Year,Month,Day,Hour,Minute,Value (Times are PST for temperature in C)
2016,04,07,00,00,9.20
2016,04,07,00,01,9.20
2016,04,07,00,02,9.20
2016,04,07,00,03,9.20
2016,04,07,00,04,9.20
2016,04,07,00,05,9.10
2016,04,07,00,06,9.10
2016,04,07,00,07,9.10
2016,04,07,00,08,9.10
2016,04,07,00,09,9.10
2016,04,07,00,10,9.10
2016,04,07,00,11,9.10
2016,04,07,00,12,9.20
2016,04,07,00,13,9.20
2016,04,07,00,14,9.20
2016,04,07,00,15,9.20
2016,04,07,00,16,9.20
2016,04,07,00,17,9.20
2016,04,07,00,18,9.20
2016,04,07,00,19,9.20
2016,04,07,00,20,9.20
2016,04,07,00,21,9.20
2016,04,07,00,22,9.20
2016,04,07,00,23,9.20
2016,04,07,00,24,9.20
2016,04,07,00,25,9.20
2016,04,07,00,26,9.20
2016,04,07,00,27,9.10
2016,04,07,00,28,9.10
2016,04,07,00,29,9.10
2016,04,07,00,30,9.10
2016,04,07,00,31,9.00
2016,04,07,00,32,9.00
2016,04,07,00,33,9.00
2016,04,07,00,34,9.00
2016,04,07,00,35,9.00
2016,04,07,00,36,9.00
2016,04,07,00,37,8.90
2016,04,07,00,38,8.90
2016,04,07,00,39,8.90
2016,04,07,00,40,8.90
2016,04,07,00,41,8.90
2016,04,07,00,42,8.90
2016,04,07,00,43,8.80
2016,04,07,00,44,8.80
2016,04,07,00,45,8.90
2016,04,07,00,46,8.90
2016,04,07,00,47,8.90
2016,04,07,00,48,8.90
2016,04,07,00,49,8.90
2016,04,07,00,50,8.90
2016,04,07,00,51,8.90
2016,04,07,00,52,8.90
2016,04,07,00,53,8.90
2016,04,07,00,54,8.90
2016,04,07,00,55,8.80
2016,04,07,00,56,8.80
2016,04,07,00,57,8.80
2016,04,07,00,58,8.80
2016,04,07,00,59,8.80
2016,04,07,01,00,8.80
2016,04,07,01,01,8.80
2016,04,07,01,02,8.80
2016,04,07,01,03,8.80
2016,04,07,01,04,8.80
2016,04,07,01,05,8.80
2016,04,07,01,06,8.80
2016,04,07,01,07,8.80
2016,04,07,01,08,8.80
2016,04,07,01,09,8.80
2016,04,07,01,10,8.80
2016,04,07,01,11,8.70
2016,04,07,01,12,8.70
2016,04,07,01,13,8.70
2016,04,07,01,14,8.70
2016,04,07,01,15,8.70
2016,04,07,01,16,8.70
2016,04,07,01,17,8.70
2016,04,07,01,18,8.70
2016,04,07,01,19,8.70
2016,04,07,01,20,8.60
2016,04,07,01,21,8.60
2016,04,07,01,22,8.60
2016,04,07,01,23,8.60
2016,04,07,01,24,8.60
2016,04,07,01,25,8.60
2016,04,07,01,26,8.60
2016,04,07,01,27,8.60
2016,04,07,01,28,8.60
2016,04,07,01,29,8.60
2016,04,07,01,30,8.60
2016,04,07,01,31,8.60
2016,04,07,01,32,8.60
2016,04,07,01,33,8.60
2016,04,07,01,34,8.60
2016,04,07,01,35,8.60
2016,04,07,01,36,8.50
2016,04,07,01,37,8.50
2016,04,07,01,38,8.50
2016,04,07,01,39,8.60
2016,04,07,01,40,8.60
2016,04,07,01,41,8.60
2016,04,07,01,42,8.50
2016,04,07,01,43,8.50
2016,04,07,01,44,8.50
2016,04,07,01,45,8.50
2016,04,07,01,46,8.50
2016,04,07,01,47,8.50
2016,04,07,01,48,8.50
2016,04,07,01,49,8.50
2016,04,07,01,50,8.50
2016,04,07,01,51,8.50
2016,04,07,01,52,8.50
2016,04,07,01,53,8.50
2016,04,07,01,54,8.50
2016,04,07,01,55,8.50
2016,04,07,01,56,8.40
2016,04,07,01,57,8.40
2016,04,07,01,58,8.40
2016,04,07,01,59,8.40
2016,04,07,02,00,8.40
2016,04,07,02,01,8.40
2016,04,07,02,02,8.40
2016,04,07,02,03,8.40
2016,04,07,02,04,8.40
2016,04,07,02,05,8.40
2016,04,07,02,06,8.40
2016,04,07,02,07,8.40
2016,04,07,02,08,8.40
2016,04,07,02,09,8.40
2016,04,07,02,10,8.30
2016,04,07,02,11,8.30
2016,04,07,02,12,8.30
2016,04,07,02,13,8.30
2016,04,07,02,14,8.30
2016,04,07,02,15,8.30
2016,04,07,02,16,8.30
2016,04,07,02,17,8.30
2016,04,07,02,18,8.30
2016,04,07,02,19,8.30
2016,04,07,02,20,8.30
2016,04,07,02,21,8.30
2016,04,07,02,22,8.30
2016,04,07,02,23,8.30
2016,04,07,02,24,8.30
2016,04,07,02,25,8.30
2016,04,07,02,26,8.30
2016,04,07,02,27,8.30
2016,04,07,02,28,8.30
2016,04,07,02,29,8.30
2016,04,07,02,30,8.30
2016,04,07,02,31,8.30
2016,04,07,02,32,8.30
2016,04,07,02,33,8.30
2016,04,07,02,34,8.30
2016,04,07,02,35,8.30
2016,04,07,02,36,8.30
2016,04,07,02,37,8.20
2016,04,07,02,38,8.20
2016,04,07,02,39,8.20
2016,04,07,02,40,8.20
2016,04,07,02,41,8.20
2016,04,07,02,42,8.10
2016,04,07,02,43,8.10
2016,04,07,02,44,8.10
2016,04,07,02,45,8.10
2016,04,07,02,46,8.10
2016,04,07,02,47,8.10
2016,04,07,02,48,8.10
2016,04,07,02,49,8.10
2016,04,07,02,50,8.10
2016,04,07,02,51,8.00
2016,04,07,02,52,8.00
2016,04,07,02,53,8.00
2016,04,07,02,54,8.00
2016,04,07,02,55,8.00
2016,04,07,02,56,7.90
2016,04,07,02,57,7.90
2016,04,07,02,58,7.90
2016,04,07,02,59,7.90
2016,04,07,03,00,7.90
2016,04,07,03,01,7.90
2016,04,07,03,02,7.90
2016,04,07,03,03,7.80
2016,04,07,03,04,7.80
2016,04,07,03,05,7.80
2016,04,07,03,06,7.80
2016,04,07,03,07,7.80
2016,04,07,03,08,7.80
2016,04,07,03,09,7.70
2016,04,07,03,10,7.70
2016,04,07,03,11,7.70
2016,04,07,03,12,7.70
2016,04,07,03,13,7.70
2016,04,07,03,14,7.70
2016,04,07,03,15,7.70
2016,04,07,03,16,7.70
2016,04,07,03,17,7.70
2016,04,07,03,18,7.70
2016,04,07,03,19,7.70
2016,04,07,03,20,7.70
2016,04,07,03,21,7.70
2016,04,07,03,22,7.70
2016,04,07,03,23,7.60
2016,04,07,03,24,7.60
2016,04,07,03,25,7.60
2016,04,07,03,26,7.60
2016,04,07,03,27,7.60
2016,04,07,03,28,7.60
2016,04,07,03,29,7.60
2016,04,07,03,30,7.60
2016,04,07,03,31,7.60
2016,04,07,03,32,7.50
2016,04,07,03,33,7.50
2016,04,07,03,34,7.60
2016,04,07,03,35,7.60
2016,04,07,03,36,7.60
2016,04,07,03,37,7.60
2016,04,07,03,38,7.60
2016,04,07,03,39,7.60
2016,04,07,03,40,7.60
2016,04,07,03,41,7.60
2016,04,07,03,42,7.60
2016,04,07,03,43,7.60
2016,04,07,03,44,7.50
2016,04,07,03,45,7.50
2016,04,07,03,46,7.50
2016,04,07,03,47,7.50
2016,04,07,03,48,7.50
2016,04,07,03,49,7.50
2016,04,07,03,50,7.50
2016,04,07,03,51,7.50
2016,04,07,03,52,7.50
2016,04,07,03,53,7.50
2016,04,07,03,54,7.40
2016,04,07,03,55,7.40
2016,04,07,03,56,7.40
2016,04,07,03,57,7.40
2016,04,07,03,58,7.40
2016,04,07,03,59,7.40
2016,04,07,04,00,7.40
2016,04,07,04,01,7.40
2016,04,07,04,02,7.30
2016,04,07,04,03,7.30
2016,04,07,04,04,7.30
2016,04,07,04,05,7.30
2016,04,07,04,06,7.30
2016,04,07,04,07,7.30
2016,04,07,04,08,7.30
2016,04,07,04,09,7.30
2016,04,07,04,10,7.30
2016,04,07,04,11,7.30
2016,04,07,04,12,7.30
2016,04,07,04,13,7.30
2016,04,07,04,14,7.30
2016,04,07,04,15,7.30
2016,04,07,04,16,7.30
2016,04,07,04,17,7.30
2016,04,07,04,18,7.50
2016,04,07,04,19,7.70
2016,04,07,04,20,7.80
2016,04,07,04,21,7.80
2016,04,07,04,22,7.80
2016,04,07,04,23,7.80
2016,04,07,04,24,7.80
2016,04,07,04,25,7.80
2016,04,07,04,26,7.80
2016,04,07,04,27,7.80
2016,04,07,04,28,7.80
2016,04,07,04,29,7.80
2016,04,07,04,30,7.70
2016,04,07,04,31,7.70
2016,04,07,04,32,7.70
2016,04,07,04,33,7.60
2016,04,07,04,34,7.60
2016,04,07,04,35,7.60
2016,04,07,04,36,7.60
2016,04,07,04,37,7.60
2016,04,07,04,38,7.60
2016,04,07,04,39,7.60
2016,04,07,04,40,7.50
2016,04,07,04,41,7.50
2016,04,07,04,42,7.50
2016,04,07,04,43,7.50
2016,04,07,04,44,7.50
2016,04,07,04,45,7.50
2016,04,07,04,46,7.50
2016,04,07,04,47,7.50
2016,04,07,04,48,7.50
2016,04,07,04,49,7.50
2016,04,07,04,50,7.50
2016,04,07,04,51,7.50
2016,04,07,04,52,7.50
2016,04,07,04,53,7.50
2016,04,07,04,54,7.60
2016,04,07,04,55,7.60
2016,04,07,04,56,7.60
2016,04,07,04,57,7.60
2016,04,07,04,58,7.60
2016,04,07,04,59,7.60
2016,04,07,05,00,7.60
2016,04,07,05,01,7.60
2016,04,07,05,02,7.60
2016,04,07,05,03,7.60
2016,04,07,05,04,7.60
2016,04,07,05,05,7.60
2016,04,07,05,06,7.60
2016,04,07,05,07,7.60
2016,04,07,05,08,7.60
2016,04,07,05,09,7.60
2016,04,07,05,10,7.60
2016,04,07,05,11,7.60
2016,04,07,05,12,7.60
2016,04,07,05,13,7.60
2016,04,07,05,14,7.60
2016,04,07,05,15,7.60
2016,04,07,05,16,7.60
2016,04,07,05,17,7.60
2016,04,07,05,18,7.60
2016,04,07,05,19,7.50
2016,04,07,05,20,7.50
2016,04,07,05,21,7.50
2016,04,07,05,22,7.50
2016,04,07,05,23,7.50
2016,04,07,05,24,7.40
2016,04,07,05,25,7.40
2016,04,07,05,26,7.40
2016,04,07,05,27,7.40
2016,04,07,05,28,7.40
2016,04,07,05,29,7.40
2016,04,07,05,30,7.40
2016,04,07,05,31,7.40
2016,04,07,05,32,7.40
2016,04,07,05,33,7.40
2016,04,07,05,34,7.40
2016,04,07,05,35,7.40
2016,04,07,05,36,7.40
2016,04,07,05,37,7.40
2016,04,07,05,38,7.40
2016,04,07,05,39,7.40
2016,04,07,05,40,7.40
2016,04,07,05,41,7.40
2016,04,07,05,42,7.40
2016,04,07,05,43,7.40
2016,04,07,05,44,7.40
2016,04,07,05,45,7.40
2016,04,07,05,46,7.40
2016,04,07,05,47,7.40
2016,04,07,05,48,7.40
2016,04,07,05,49,7.40
2016,04,07,05,50,7.40
2016,04,07,05,51,7.40
2016,04,07,05,52,7.40
2016,04,07,05,53,7.40
2016,04,07,05,54,7.40
2016,04,07,05,55,7.40
2016,04,07,05,56,7.40
2016,04,07,05,57,7.40
2016,04,07,05,58,7.40
2016,04,07,05,59,7.40
2016,04,07,06,00,7.40
2016,04,07,06,01,7.50
2016,04,07,06,02,7.50
2016,04,07,06,03,7.50
2016,04,07,06,04,7.50
2016,04,07,06,05,7.60
2016,04,07,06,06,7.60
2016,04,07,06,07,7.60
2016,04,07,06,08,7.70
2016,04,07,06,09,7.70
2016,04,07,06,10,7.70
2016,04,07,06,11,7.70
2016,04,07,06,12,7.70
2016,04,07,06,13,7.70
2016,04,07,06,14,7.70
2016,04,07,06,15,7.70
2016,04,07,06,16,7.80
2016,04,07,06,17,7.80
2016,04,07,06,18,7.80
2016,04,07,06,19,7.80
2016,04,07,06,20,7.80
2016,04,07,06,21,7.80
2016,04,07,06,22,7.80
2016,04,07,06,23,7.80
2016,04,07,06,24,7.80
2016,04,07,06,25,7.80
2016,04,07,06,26,7.80
2016,04,07,06,27,7.80
2016,04,07,06,28,7.80
2016,04,07,06,29,7.80
2016,04,07,06,30,7.80
2016,04,07,06,31,7.80
2016,04,07,06,32,7.80
2016,04,07,06,33,7.80
2016,04,07,06,34,7.80
2016,04,07,06,35,7.80
2016,04,07,06,36,7.90
2016,04,07,06,37,7.90
2016,04,07,06,38,7.90
2016,04,07,06,39,7.90
2016,04,07,06,40,7.90
2016,04,07,06,41,7.90
2016,04,07,06,42,7.90
2016,04,07,06,43,7.90
2016,04,07,06,44,7.90
2016,04,07,06,45,7.90
2016,04,07,06,46,7.90
2016,04,07,06,47,7.90
2016,04,07,06,48,7.90
2016,04,07,06,49,7.90
2016,04,07,06,50,7.90
2016,04,07,06,51,7.90
2016,04,07,06,52,7.90
2016,04,07,06,53,7.90
2016,04,07,06,54,8.00
2016,04,07,06,55,8.00
2016,04,07,06,56,7.90
2016,04,07,06,57,7.90
2016,04,07,06,58,7.90
2016,04,07,06,59,7.90
2016,04,07,07,00,7.90
2016,04,07,07,01,7.80
2016,04,07,07,02,7.80
2016,04,07,07,03,7.80
2016,04,07,07,04,7.80
2016,04,07,07,05,7.80
2016,04,07,07,06,7.80
2016,04,07,07,07,7.80
2016,04,07,07,08,7.80
2016,04,07,07,09,7.80
2016,04,07,07,10,7.80
2016,04,07,07,11,7.80
2016,04,07,07,12,7.80
2016,04,07,07,13,7.90
2016,04,07,07,14,8.00
2016,04,07,07,15,8.00
2016,04,07,07,16,8.10
2016,04,07,07,17,8.10
2016,04,07,07,18,8.20
2016,04,07,07,19,8.20
2016,04,07,07,20,8.20
2016,04,07,07,21,8.30
2016,04,07,07,22,8.30
2016,04,07,07,23,8.20
2016,04,07,07,24,8.20
2016,04,07,07,25,8.20
2016,04,07,07,26,8.20
2016,04,07,07,27,8.20
2016,04,07,07,28,8.20
2016,04,07,07,29,8.20
2016,04,07,07,30,8.20
2016,04,07,07,31,8.20
2016,04,07,07,32,8.20
2016,04,07,07,33,8.20
2016,04,07,07,34,8.20
2016,04,07,07,35,8.20
2016,04,07,07,36,8.20
2016,04,07,07,37,8.20
2016,04,07,07,38,8.20
2016,04,07,07,39,8.20
2016,04,07,07,40,8.20
2016,04,07,07,41,8.20
2016,04,07,07,42,8.20
2016,04,07,07,43,8.10
2016,04,07,07,44,8.10
2016,04,07,07,45,8.10
2016,04,07,07,46,8.10
2016,04,07,07,47,8.10
2016,04,07,07,48,8.10
2016,04,07,07,49,8.00
2016,04,07,07,50,8.00
2016,04,07,07,51,8.00
2016,04,07,07,52,8.00
2016,04,07,07,53,8.00
2016,04,07,07,54,8.00
2016,04,07,07,55,7.90
2016,04,07,07,56,7.90
2016,04,07,07,57,7.90
2016,04,07,07,58,7.80
2016,04,07,07,59,7.80
2016,04,07,08,00,7.80
2016,04,07,08,01,7.80
2016,04,07,08,02,7.80
2016,04,07,08,03,7.80
2016,04,07,08,04,7.80
2016,04,07,08,05,7.80
2016,04,07,08,06,7.80
2016,04,07,08,07,7.80
2016,04,07,08,08,7.80
2016,04,07,08,09,7.80
2016,04,07,08,10,7.70
2016,04,07,08,11,7.70
2016,04,07,08,12,7.70
2016,04,07,08,13,7.60
2016,04,07,08,14,7.60
2016,04,07,08,15,7.60
2016,04,07,08,16,7.60
2016,04,07,08,17,7.60
2016,04,07,08,18,7.60
2016,04,07,08,19,7.60
2016,04,07,08,20,7.60
2016,04,07,08,21,7.60
2016,04,07,08,22,7.60
2016,04,07,08,23,7.70
2016,04,07,08,24,7.70
2016,04,07,08,25,7.70
2016,04,07,08,26,7.70
2016,04,07,08,27,7.70
2016,04,07,08,28,7.70
2016,04,07,08,29,7.60
2016,04,07,08,30,7.60
2016,04,07,08,31,7.60
2016,04,07,08,32,7.60
2016,04,07,08,33,7.60
2016,04,07,08,34,7.60
2016,04,07,08,35,7.60
2016,04,07,08,36,7.60
2016,04,07,08,37,7.60
2016,04,07,08,38,7.60
2016,04,07,08,39,7.60
2016,04,07,08,40,7.70
2016,04,07,08,41,7.70
2016,04,07,08,42,7.70
2016,04,07,08,43,7.70
2016,04,07,08,44,7.70
2016,04,07,08,45,7.70
2016,04,07,08,46,7.70
2016,04,07,08,47,7.80
2016,04,07,08,48,8.00
2016,04,07,08,49,8.20
2016,04,07,08,50,8.30
2016,04,07,08,51,8.40
2016,04,07,08,52,8.50
2016,04,07,08,53,8.60
2016,04,07,08,54,8.80
2016,04,07,08,55,9.10
2016,04,07,08,56,9.30
2016,04,07,08,57,9.50
2016,04,07,08,58,9.60
2016,04,07,08,59,9.70
2016,04,07,09,00,9.80
2016,04,07,09,01,9.90
2016,04,07,09,02,9.80
2016,04,07,09,03,9.80
2016,04,07,09,04,9.80
2016,04,07,09,05,9.80
2016,04,07,09,06,9.80
2016,04,07,09,07,9.80
2016,04,07,09,08,9.80
2016,04,07,09,09,9.90
2016,04,07,09,10,9.90
2016,04,07,09,11,10.00
2016,04,07,09,12,10.10
2016,04,07,09,13,10.10
2016,04,07,09,14,10.20
2016,04,07,09,15,10.30
2016,04,07,09,16,10.30
2016,04,07,09,17,10.30
2016,04,07,09,18,10.50
2016,04,07,09,19,10.70
2016,04,07,09,20,10.80
2016,04,07,09,21,11.00
2016,04,07,09,22,11.20
2016,04,07,09,23,11.40
2016,04,07,09,24,11.50
2016,04,07,09,25,11.60
2016,04,07,09,26,11.60
2016,04,07,09,27,11.60
2016,04,07,09,28,11.70
2016,04,07,09,29,11.90
2016,04,07,09,30,12.10
2016,04,07,09,31,12.20
2016,04,07,09,32,12.20
2016,04,07,09,33,12.20
2016,04,07,09,34,12.20
2016,04,07,09,35,12.30
2016,04,07,09,36,12.40
2016,04,07,09,37,12.50
2016,04,07,09,38,12.50
2016,04,07,09,39,12.50
2016,04,07,09,40,12.60
2016,04,07,09,41,12.50
2016,04,07,09,42,12.60
2016,04,07,09,43,12.80
2016,04,07,09,44,12.90
2016,04,07,09,45,13.00
2016,04,07,09,46,12.90
2016,04,07,09,47,12.90
2016,04,07,09,48,12.90
2016,04,07,09,49,12.70
2016,04,07,09,50,12.60
2016,04,07,09,51,12.50
2016,04,07,09,52,12.60
2016,04,07,09,53,12.60
2016,04,07,09,54,12.80
2016,04,07,09,55,13.00
2016,04,07,09,56,13.30
2016,04,07,09,57,13.50
2016,04,07,09,58,13.60
2016,04,07,09,59,13.70
2016,04,07,10,00,13.80
2016,04,07,10,01,13.80
2016,04,07,10,02,13.80
2016,04,07,10,03,13.60
2016,04,07,10,04,13.70
2016,04,07,10,05,13.70
2016,04,07,10,06,13.80
2016,04,07,10,07,13.80
2016,04,07,10,08,13.80
2016,04,07,10,09,13.90
2016,04,07,10,10,14.00
2016,04,07,10,11,14.10
2016,04,07,10,12,13.90
2016,04,07,10,13,13.90
2016,04,07,10,14,13.90
2016,04,07,10,15,13.90
2016,04,07,10,16,13.90
2016,04,07,10,17,14.10
2016,04,07,10,18,14.10
2016,04,07,10,19,14.20
2016,04,07,10,20,14.20
2016,04,07,10,21,14.30
2016,04,07,10,22,14.40
2016,04,07,10,23,14.40
2016,04,07,10,24,14.50
2016,04,07,10,25,14.60
2016,04,07,10,26,14.70
2016,04,07,10,27,14.70
2016,04,07,10,28,14.70
2016,04,07,10,29,14.90
2016,04,07,10,30,14.90
2016,04,07,10,31,14.90
2016,04,07,10,32,15.00
2016,04,07,10,33,15.20
2016,04,07,10,34,15.30
2016,04,07,10,35,15.40
2016,04,07,10,36,15.50
2016,04,07,10,37,15.60
2016,04,07,10,38,15.70
2016,04,07,10,39,15.80
2016,04,07,10,40,15.70
2016,04,07,10,41,15.60
2016,04,07,10,42,15.60
2016,04,07,10,43,15.70
2016,04,07,10,44,15.80
2016,04,07,10,45,15.70
2016,04,07,10,46,15.70
2016,04,07,10,47,15.70
2016,04,07,10,48,15.50
2016,04,07,10,49,15.30
2016,04,07,10,50,15.10
2016,04,07,10,51,15.10
2016,04,07,10,52,15.00
2016,04,07,10,53,14.80
2016,04,07,10,54,14.80
2016,04,07,10,55,14.70
2016,04,07,10,56,14.60
2016,04,07,10,57,14.40
2016,04,07,10,58,14.40
2016,04,07,10,59,14.30
2016,04,07,11,00,14.30
2016,04,07,11,01,14.30
2016,04,07,11,02,14.30
2016,04,07,11,03,14.30
2016,04,07,11,04,14.30
2016,04,07,11,05,14.30
2016,04,07,11,06,14.20
2016,04,07,11,07,14.20
2016,04,07,11,08,14.10
2016,04,07,11,09,14.00
2016,04,07,11,10,14.00
2016,04,07,11,11,13.90
2016,04,07,11,12,13.90
2016,04,07,11,13,13.90
2016,04,07,11,14,13.90
2016,04,07,11,15,13.90
2016,04,07,11,16,14.00
2016,04,07,11,17,14.00
2016,04,07,11,18,14.10
2016,04,07,11,19,14.10
2016,04,07,11,20,14.20
2016,04,07,11,21,14.30
2016,04,07,11,22,14.30
2016,04,07,11,23,14.30
2016,04,07,11,24,14.40
2016,04,07,11,25,14.40
2016,04,07,11,26,14.50
2016,04,07,11,27,14.70
2016,04,07,11,28,14.80
2016,04,07,11,29,14.80
2016,04,07,11,30,14.90
2016,04,07,11,31,15.00
2016,04,07,11,32,15.00
2016,04,07,11,33,15.10
2016,04,07,11,34,15.20
2016,04,07,11,35,15.30
2016,04,07,11,36,15.40
2016,04,07,11,37,15.30
2016,04,07,11,38,15.30
2016,04,07,11,39,15.30
2016,04,07,11,40,15.20
2016,04,07,11,41,15.20
2016,04,07,11,42,15.20
2016,04,07,11,43,15.20
2016,04,07,11,44,15.20
2016,04,07,11,45,15.20
2016,04,07,11,46,15.30
2016,04,07,11,47,15.40
2016,04,07,11,48,15.40
2016,04,07,11,49,15.50
2016,04,07,11,50,15.50
2016,04,07,11,51,15.50
2016,04,07,11,52,15.50
2016,04,07,11,53,15.60
2016,04,07,11,54,15.70
2016,04,07,11,55,15.80
2016,04,07,11,56,15.90
2016,04,07,11,57,15.90
2016,04,07,11,58,16.00
2016,04,07,11,59,16.00
2016,04,07,12,00,16.00
2016,04,07,12,01,16.10
2016,04,07,12,02,16.20
2016,04,07,12,03,16.30
2016,04,07,12,04,16.30
2016,04,07,12,05,16.30
2016,04,07,12,06,16.40
2016,04,07,12,07,16.40
2016,04,07,12,08,16.30
2016,04,07,12,09,16.40
2016,04,07,12,10,16.40
2016,04,07,12,11,16.40
2016,04,07,12,12,16.50
2016,04,07,12,13,16.50
2016,04,07,12,14,16.70
2016,04,07,12,15,16.60
2016,04,07,12,16,16.70
2016,04,07,12,17,16.70
2016,04,07,12,18,16.70
2016,04,07,12,19,16.70
2016,04,07,12,20,16.70
2016,04,07,12,21,16.70
2016,04,07,12,22,16.70
2016,04,07,12,23,16.80
2016,04,07,12,24,16.90
2016,04,07,12,25,17.00
2016,04,07,12,26,17.10
2016,04,07,12,27,17.20
2016,04,07,12,28,17.30
2016,04,07,12,29,17.30
2016,04,07,12,30,17.40
2016,04,07,12,31,17.40
2016,04,07,12,32,17.50
2016,04,07,12,33,17.60
2016,04,07,12,34,17.80
2016,04,07,12,35,17.80
2016,04,07,12,36,17.80
2016,04,07,12,37,17.80
2016,04,07,12,38,17.90
2016,04,07,12,39,18.00
2016,04,07,12,40,18.10
2016,04,07,12,41,18.20
2016,04,07,12,42,18.30
2016,04,07,12,43,18.30
2016,04,07,12,44,18.30
2016,04,07,12,45,18.40
2016,04,07,12,46,18.40
2016,04,07,12,47,18.40
2016,04,07,12,48,18.20
2016,04,07,12,49,18.20
2016,04,07,12,50,18.20
2016,04,07,12,51,18.30
2016,04,07,12,52,18.30
2016,04,07,12,53,18.20
2016,04,07,12,54,18.20
2016,04,07,12,55,18.20
2016,04,07,12,56,18.30
2016,04,07,12,57,18.20
2016,04,07,12,58,18.30
2016,04,07,12,59,18.30
2016,04,07,13,00,18.30
2016,04,07,13,01,18.30
2016,04,07,13,02,18.30
2016,04,07,13,03,18.30
2016,04,07,13,04,18.30
2016,04,07,13,05,18.30
2016,04,07,13,06,18.40
2016,04,07,13,07,18.40
2016,04,07,13,08,18.50
2016,04,07,13,09,18.60
2016,04,07,13,10,18.70
2016,04,07,13,11,18.80
2016,04,07,13,12,18.80
2016,04,07,13,13,18.90
2016,04,07,13,14,18.90
2016,04,07,13,15,18.90
2016,04,07,13,16,19.00
2016,04,07,13,17,19.10
2016,04,07,13,18,19.20
2016,04,07,13,19,19.30
2016,04,07,13,20,19.30
2016,04,07,13,21,19.30
2016,04,07,13,22,19.40
2016,04,07,13,23,19.40
2016,04,07,13,24,19.60
2016,04,07,13,25,19.70
2016,04,07,13,26,19.80
2016,04,07,13,27,19.90
2016,04,07,13,28,20.10
2016,04,07,13,29,20.30
2016,04,07,13,30,20.30
2016,04,07,13,31,20.30
2016,04,07,13,32,20.40
2016,04,07,13,33,20.40
2016,04,07,13,34,20.40
2016,04,07,13,35,20.50
2016,04,07,13,36,20.60
2016,04,07,13,37,20.70
2016,04,07,13,38,20.80
2016,04,07,13,39,20.90
2016,04,07,13,40,21.00
2016,04,07,13,41,21.10
2016,04,07,13,42,21.20
2016,04,07,13,43,21.20
2016,04,07,13,44,21.30
2016,04,07,13,45,21.30
2016,04,07,13,46,21.40
2016,04,07,13,47,21.50
2016,04,07,13,48,21.50
2016,04,07,13,49,21.60
2016,04,07,13,50,21.60
2016,04,07,13,51,21.70
2016,04,07,13,52,21.80
2016,04,07,13,53,21.80
2016,04,07,13,54,21.80
2016,04,07,13,55,21.80
2016,04,07,13,56,21.80
2016,04,07,13,57,21.40
2016,04,07,13,58,21.00
2016,04,07,13,59,20.70
2016,04,07,14,00,20.50
2016,04,07,14,01,20.30
2016,04,07,14,02,20.10
2016,04,07,14,03,19.90
2016,04,07,14,04,19.70
2016,04,07,14,05,19.40
2016,04,07,14,06,19.30
2016,04,07,14,07,19.30
2016,04,07,14,08,19.30
2016,04,07,14,09,19.30
2016,04,07,14,10,19.40
2016,04,07,14,11,19.50
2016,04,07,14,12,19.60
2016,04,07,14,13,19.80
2016,04,07,14,14,19.90
2016,04,07,14,15,20.00
2016,04,07,14,16,20.10
2016,04,07,14,17,20.20
2016,04,07,14,18,20.40
2016,04,07,14,19,20.50
2016,04,07,14,20,20.60
2016,04,07,14,21,20.70
2016,04,07,14,22,20.80
2016,04,07,14,23,20.80
2016,04,07,14,24,21.00
2016,04,07,14,25,21.10
2016,04,07,14,26,21.20
2016,04,07,14,27,21.40
2016,04,07,14,28,21.50
2016,04,07,14,29,21.60
2016,04,07,14,30,21.70
2016,04,07,14,31,21.80
2016,04,07,14,32,21.80
2016,04,07,14,33,21.80
2016,04,07,14,34,21.70
2016,04,07,14,35,21.70
2016,04,07,14,36,21.60
2016,04,07,14,37,21.60
2016,04,07,14,38,21.60
2016,04,07,14,39,21.60
2016,04,07,14,40,21.60
2016,04,07,14,41,21.70
2016,04,07,14,42,21.70
2016,04,07,14,43,21.70
2016,04,07,14,44,21.80
2016,04,07,14,45,21.80
2016,04,07,14,46,21.90
2016,04,07,14,47,21.90
2016,04,07,14,48,21.90
2016,04,07,14,49,21.90
2016,04,07,14,50,21.90
2016,04,07,14,51,21.90
2016,04,07,14,52,21.90
2016,04,07,14,53,22.00
2016,04,07,14,54,22.00
2016,04,07,14,55,22.10
2016,04,07,14,56,22.10
2016,04,07,14,57,22.10
2016,04,07,14,58,22.20
2016,04,07,14,59,22.20
2016,04,07,15,00,22.30
2016,04,07,15,01,22.40
2016,04,07,15,02,22.40
2016,04,07,15,03,22.50
2016,04,07,15,04,22.50
2016,04,07,15,05,22.50
2016,04,07,15,06,22.50
2016,04,07,15,07,22.50
2016,04,07,15,08,22.50
2016,04,07,15,09,22.60
2016,04,07,15,10,22.60
2016,04,07,15,11,22.60
2016,04,07,15,12,22.70
2016,04,07,15,13,22.70
2016,04,07,15,14,22.80
2016,04,07,15,15,22.90
2016,04,07,15,16,23.00
2016,04,07,15,17,23.10
2016,04,07,15,18,23.20
2016,04,07,15,19,23.20
2016,04,07,15,20,23.30
2016,04,07,15,21,23.40
2016,04,07,15,22,23.40
2016,04,07,15,23,23.50
2016,04,07,15,24,23.50
2016,04,07,15,25,23.60
2016,04,07,15,26,23.60
2016,04,07,15,27,23.70
2016,04,07,15,28,23.70
2016,04,07,15,29,23.80
2016,04,07,15,30,23.80
2016,04,07,15,31,23.90
2016,04,07,15,32,24.00
2016,04,07,15,33,24.10
2016,04,07,15,34,24.20
2016,04,07,15,35,24.20
2016,04,07,15,36,24.20
2016,04,07,15,37,24.10
2016,04,07,15,38,24.10
2016,04,07,15,39,24.10
2016,04,07,15,40,24.10
2016,04,07,15,41,24.10
2016,04,07,15,42,24.00
2016,04,07,15,43,24.00
2016,04,07,15,44,24.00
2016,04,07,15,45,24.00
2016,04,07,15,46,23.90
2016,04,07,15,47,24.00
2016,04,07,15,48,24.00
2016,04,07,15,49,24.10
2016,04,07,15,50,24.10
2016,04,07,15,51,24.20
2016,04,07,15,52,24.30
2016,04,07,15,53,24.30
2016,04,07,15,54,24.30
2016,04,07,15,55,24.30
2016,04,07,15,56,24.30
2016,04,07,15,57,24.30
2016,04,07,15,58,24.30
2016,04,07,15,59,24.30
2016,04,07,16,00,24.20
2016,04,07,16,01,24.20
2016,04,07,16,02,24.20
2016,04,07,16,03,24.10
2016,04,07,16,04,24.10
2016,04,07,16,05,24.10
2016,04,07,16,06,24.10
2016,04,07,16,07,24.00
2016,04,07,16,08,24.00
2016,04,07,16,09,24.00
2016,04,07,16,10,24.10
2016,04,07,16,11,24.10
2016,04,07,16,12,24.20
2016,04,07,16,13,24.20
2016,04,07,16,14,24.20
2016,04,07,16,15,24.30
2016,04,07,16,16,24.30
2016,04,07,16,17,24.20
2016,04,07,16,18,24.20
2016,04,07,16,19,24.10
2016,04,07,16,20,24.10
2016,04,07,16,21,24.10
2016,04,07,16,22,24.00
2016,04,07,16,23,23.90
2016,04,07,16,24,23.90
2016,04,07,16,25,23.90
2016,04,07,16,26,23.80
2016,04,07,16,27,23.80
2016,04,07,16,28,23.80
2016,04,07,16,29,23.80
2016,04,07,16,30,23.90
2016,04,07,16,31,23.90
2016,04,07,16,32,23.90
2016,04,07,16,33,23.90
2016,04,07,16,34,23.80
2016,04,07,16,35,23.70
2016,04,07,16,36,23.60
2016,04,07,16,37,23.60
2016,04,07,16,38,23.60
2016,04,07,16,39,23.60
2016,04,07,16,40,23.60
2016,04,07,16,41,23.50
2016,04,07,16,42,23.50
2016,04,07,16,43,23.50
2016,04,07,16,44,23.50
2016,04,07,16,45,23.50
2016,04,07,16,46,23.50
2016,04,07,16,47,23.40
2016,04,07,16,48,23.40
2016,04,07,16,49,23.40
2016,04,07,16,50,23.30
2016,04,07,16,51,23.30
2016,04,07,16,52,23.20
2016,04,07,16,53,23.10
2016,04,07,16,54,22.90
2016,04,07,16,55,22.80
2016,04,07,16,56,22.80
2016,04,07,16,57,22.70
2016,04,07,16,58,22.70
2016,04,07,16,59,22.70
2016,04,07,17,00,22.70
2016,04,07,17,01,22.70
2016,04,07,17,02,22.70
2016,04,07,17,03,22.80
2016,04,07,17,04,22.80
2016,04,07,17,05,22.90
2016,04,07,17,06,22.90
2016,04,07,17,07,22.90
2016,04,07,17,08,22.80
2016,04,07,17,09,22.80
2016,04,07,17,10,22.70
2016,04,07,17,11,22.70
2016,04,07,17,12,22.70
2016,04,07,17,13,22.70
2016,04,07,17,14,22.70
2016,04,07,17,15,22.80
2016,04,07,17,16,23.00
2016,04,07,17,17,23.10
2016,04,07,17,18,23.20
2016,04,07,17,19,23.30
2016,04,07,17,20,23.30
2016,04,07,17,21,23.40
2016,04,07,17,22,23.40
2016,04,07,17,23,23.40
2016,04,07,17,24,23.50
2016,04,07,17,25,23.50
2016,04,07,17,26,23.50
2016,04,07,17,27,23.50
2016,04,07,17,28,23.60
2016,04,07,17,29,23.60
2016,04,07,17,30,23.60
2016,04,07,17,31,23.70
2016,04,07,17,32,23.70
2016,04,07,17,33,23.70
2016,04,07,17,34,23.70
2016,04,07,17,35,23.70
2016,04,07,17,36,23.70
2016,04,07,17,37,23.70
2016,04,07,17,38,23.70
2016,04,07,17,39,23.60
2016,04,07,17,40,23.50
2016,04,07,17,41,23.40
2016,04,07,17,42,23.30
2016,04,07,17,43,23.20